Date String (YYYY-MM-DD hh:mm:ss) UTC,Instrument flags,absolute air pressure of the measurement (hPa),sample flow rate (lpm),inlet stack bypass flow (lpm),air temperature of the measurement (°C),ambient temperature measured by the external sensor (°C),aerosol sample conditioner tube jacket temperature (°C),OPC LED temperature (°C),internal box temperature (°C),relative humidity of the measurement (%),span deviation,mass concentration of particles derived from Lorenz-Mie calculation of OPC scattering (μg/m³),mass concentration of particles derived from Lorenz-Mie calculation of OPC scattering (μg/m³),mass concentration of particles derived from Lorenz-Mie calculation of OPC scattering (μg/m³)
DateTimeUTC,F1_M11,P_M11,Q1_M11,Q2_M11,T1_M11,T2_M11,T3_M11,T4_M11,T5_M11,U1_M11,ZSPAN_M11,X2_M11,X0_M11,X1_M11
2023-07-06 23:00:00,SystemResetWarning,0831.2,4.98,000.00,032.8,027.8,000.0,040.3,032.1,30.9,-000.5,0009.13,0014.09,0008.56
2023-07-06 23:01:00,SystemResetWarning,0831.2,5.00,000.00,032.8,026.0,000.0,040.2,031.9,30.1,-000.8,0008.96,0014.11,0008.38
2023-07-06 23:02:00,SystemResetWarning,0831.2,5.00,000.00,032.7,025.2,000.0,040.1,031.7,29.5,-000.8,0008.83,0014.14,0008.24
2023-07-06 23:03:00,SystemResetWarning,0831.2,5.01,000.00,032.5,025.2,000.0,040.1,031.4,30.5,-000.7,0008.66,0014.77,0008.07
2023-07-06 23:04:00,SystemResetWarning,0831.2,5.01,000.00,032.3,025.6,000.0,040.1,031.4,32.0,-000.8,0008.45,0013.90,0007.90
2023-07-06 23:05:00,SystemResetWarning,0831.2,5.00,000.00,032.2,026.1,000.0,040.2,031.4,32.2,-000.7,0008.32,0013.70,0007.79
2023-07-06 23:06:00,SystemResetWarning,0831.2,4.99,000.00,032.1,026.6,000.0,040.2,031.5,32.2,-000.4,0008.21,0013.42,0007.71
2023-07-06 23:07:00,SystemResetWarning,0831.2,5.00,000.00,032.0,027.0,000.0,040.2,031.6,32.9,-000.4,0008.14,0013.30,0007.67
2023-07-06 23:08:00,SystemResetWarning,0831.2,5.00,000.00,031.9,027.3,000.0,040.1,031.6,33.4,0000.1,0008.08,0013.45,0007.64
2023-07-06 23:09:00,SystemResetWarning,0831.3,4.98,000.00,031.9,027.6,000.0,040.1,031.7,33.2,0000.2,0008.05,0013.33,0007.63
2023-07-06 23:10:00,SystemResetWarning,0831.3,4.99,000.00,031.8,027.9,000.0,040.1,031.7,31.7,0000.3,0008.04,0013.29,0007.64
2023-07-06 23:11:00,SystemResetWarning,0831.3,5.02,000.00,031.8,028.1,000.0,040.1,031.8,32.3,0000.4,0008.04,0013.35,0007.65
2023-07-06 23:12:00,SystemResetWarning,0831.3,5.00,000.00,031.8,028.2,000.0,040.0,031.8,32.0,0000.4,0008.07,0013.13,0007.69
2023-07-06 23:13:00,SystemResetWarning,0831.3,4.99,000.00,031.8,028.4,000.0,040.0,031.9,32.3,0000.2,0008.07,0013.31,0007.70
2023-07-06 23:14:00,SystemResetWarning,0831.3,4.99,000.00,031.8,028.2,000.0,040.0,031.9,32.3,0000.2,0008.07,0012.55,0007.73
2023-07-06 23:15:00,SystemResetWarning,0831.4,5.00,000.00,031.8,026.7,000.0,039.8,031.8,32.8,0000.4,0008.05,0011.96,0007.73
2023-07-06 23:16:00,SystemResetWarning,0831.3,5.00,000.00,031.7,025.4,000.0,039.6,031.6,32.0,0000.3,0008.05,0012.00,0007.73
2023-07-06 23:17:00,SystemResetWarning,0831.3,5.02,000.00,031.5,025.2,000.0,039.6,031.4,31.7,0000.2,0008.07,0012.04,0007.74
2023-07-06 23:18:00,SystemResetWarning,0831.3,4.99,000.00,031.3,025.5,000.0,039.6,031.2,32.3,0000.1,0008.11,0012.12,0007.75
2023-07-06 23:19:00,SystemResetWarning,0831.4,5.00,000.00,031.2,026.0,000.0,039.6,031.2,32.2,-000.2,0008.14,0012.00,0007.74
2023-07-06 23:20:00,SystemResetWarning,0831.3,5.00,000.00,031.1,026.4,000.0,039.5,031.3,32.3,-000.6,0008.17,0012.00,0007.73
2023-07-06 23:21:00,SystemResetWarning,0831.3,5.00,000.00,031.1,026.8,000.0,039.5,031.4,32.4,-000.9,0008.19,0012.11,0007.71
2023-07-06 23:22:00,SystemResetWarning,0831.4,5.00,000.00,031.0,027.2,000.0,039.5,031.4,33.3,-001.0,0008.21,0012.16,0007.72
2023-07-06 23:23:00,SystemResetWarning,0831.3,4.99,000.00,031.0,027.5,000.0,039.5,031.5,32.4,-001.3,0008.20,0012.47,0007.69
2023-07-06 23:24:00,SystemResetWarning,0831.4,5.00,000.00,031.0,027.8,000.0,039.4,031.5,32.6,-001.2,0008.17,0011.93,0007.66
2023-07-06 23:25:00,SystemResetWarning,0831.3,4.99,000.00,031.0,028.0,000.0,039.4,031.6,34.4,-001.2,0008.19,0011.88,0007.65
2023-07-06 23:26:00,SystemResetWarning,0831.3,5.03,000.00,031.0,028.2,000.0,039.4,031.7,35.1,-001.4,0008.25,0012.01,0007.68
2023-07-06 23:27:00,SystemResetWarning,0831.3,4.97,000.00,031.2,028.4,000.0,039.4,031.8,34.6,-001.6,0008.27,0012.09,0007.69
2023-07-06 23:28:00,SystemResetWarning,0831.3,5.02,000.00,031.3,028.1,000.0,039.3,031.8,34.3,-001.6,0008.29,0012.13,0007.70
2023-07-06 23:29:00,SystemResetWarning,0831.3,4.99,000.00,031.4,026.4,000.0,039.2,031.7,34.8,-001.8,0008.33,0012.22,0007.72
2023-07-06 23:30:00,SystemResetWarning,0831.3,5.01,000.00,031.4,025.3,000.0,039.1,031.5,35.1,-001.9,0008.31,0012.16,0007.74
2023-07-06 23:31:00,SystemResetWarning,0831.3,5.01,000.00,031.5,025.2,000.0,039.0,031.3,34.7,-001.6,0008.32,0012.15,0007.78
2023-07-06 23:32:00,SystemResetWarning,0831.3,4.98,000.00,031.4,025.5,000.0,039.1,031.2,34.6,-001.3,0008.33,0012.13,0007.82
2023-07-06 23:33:00,SystemResetWarning,0831.3,5.01,000.00,031.5,026.0,000.0,039.2,031.3,34.1,-001.3,0008.34,0012.17,0007.82
2023-07-06 23:34:00,SystemResetWarning,0831.3,5.01,000.00,031.5,026.4,000.0,039.2,031.3,33.7,-001.0,0008.32,0012.60,0007.82
2023-07-06 23:35:00,SystemResetWarning,0831.3,4.99,000.00,031.5,026.9,000.0,039.3,031.4,33.9,-001.1,0008.31,0012.67,0007.81
2023-07-06 23:36:00,SystemResetWarning,0831.3,5.00,000.00,031.5,027.2,000.0,039.3,031.4,34.0,-001.0,0008.31,0012.70,0007.82
2023-07-06 23:37:00,SystemResetWarning,0831.3,5.02,000.00,031.5,027.5,000.0,039.4,031.5,33.7,-001.0,0008.33,0012.77,0007.82
2023-07-06 23:38:00,SystemResetWarning,0831.2,5.00,000.00,031.5,027.8,000.0,039.4,031.6,34.4,-001.1,0008.34,0012.73,0007.85
2023-07-06 23:39:00,SystemResetWarning,0831.2,4.99,000.00,031.5,028.0,000.0,039.4,031.6,34.2,-000.8,0008.39,0012.75,0007.87
2023-07-06 23:40:00,SystemResetWarning,0831.2,4.99,000.00,031.5,028.0,000.0,039.5,031.5,33.8,-000.8,0008.42,0012.78,0007.91
2023-07-06 23:41:00,SystemResetWarning,0831.1,5.00,000.00,031.4,028.1,000.0,039.5,031.5,33.8,-000.5,0008.45,0012.78,0007.94
2023-07-06 23:42:00,SystemResetWarning,0831.1,5.01,000.00,031.4,028.1,000.0,039.5,031.5,33.8,-000.7,0008.51,0012.84,0007.97
2023-07-06 23:43:00,SystemResetWarning,0831.1,5.00,000.00,031.3,028.1,000.0,039.5,031.5,34.2,-000.7,0008.50,0012.86,0007.98
2023-07-06 23:44:00,SystemResetWarning,0831.1,5.00,000.00,031.3,028.1,000.0,039.5,031.4,34.3,-000.4,0008.51,0012.83,0007.99
2023-07-06 23:45:00,SystemResetWarning,0831.1,4.99,000.00,031.2,028.1,000.0,039.5,031.4,34.5,-000.9,0008.51,0012.38,0007.99
2023-07-06 23:46:00,SystemResetWarning,0831.1,4.99,000.00,031.2,028.1,000.0,039.4,031.4,34.6,-000.8,0008.55,0012.50,0008.02
2023-07-06 23:47:00,SystemResetWarning,0831.1,4.99,000.00,031.1,028.0,000.0,039.4,031.4,35.3,-000.7,0008.60,0012.70,0008.05
2023-07-06 23:48:00,SystemResetWarning,0831.1,5.03,000.00,031.2,028.0,000.0,039.4,031.3,36.2,-000.2,0008.58,0012.63,0008.05
2023-07-06 23:49:00,SystemResetWarning,0831.1,4.98,000.00,031.4,027.9,000.0,039.4,031.5,35.8,0000.1,0008.62,0012.93,0008.06
2023-07-06 23:50:00,SystemResetWarning,0831.1,5.00,000.00,031.6,027.9,000.0,039.4,031.5,35.3,0000.4,0008.63,0013.72,0008.07
2023-07-06 23:51:00,SystemResetWarning,0831.1,5.02,000.00,031.9,027.8,000.0,039.4,031.6,34.5,0000.9,0008.63,0013.88,0008.07
2023-07-06 23:52:00,SystemResetWarning,0831.1,4.98,000.00,032.1,027.8,000.0,039.5,031.6,33.7,0000.8,0008.65,0013.94,0008.07
2023-07-06 23:53:00,SystemResetWarning,0831.2,5.02,000.00,032.2,027.8,000.0,039.5,031.6,33.1,0000.7,0008.59,0013.85,0008.04
2023-07-06 23:54:00,SystemResetWarning,0831.2,5.00,000.00,032.2,027.8,000.0,039.6,031.6,33.1,0000.6,0008.54,0013.83,0008.01
2023-07-06 23:55:00,SystemResetWarning,0831.3,4.99,000.00,032.2,027.8,000.0,039.7,031.5,33.7,0000.4,0008.48,0014.38,0007.95
2023-07-06 23:56:00,SystemResetWarning,0831.3,5.00,000.00,032.2,027.8,000.0,039.8,031.4,33.0,0000.6,0008.43,0014.27,0007.92
2023-07-06 23:57:00,SystemResetWarning,0831.3,5.01,000.00,032.1,027.8,000.0,039.8,031.4,32.5,0000.6,0008.39,0013.75,0007.88
2023-07-06 23:58:00,SystemResetWarning,0831.3,5.01,000.00,032.1,027.8,000.0,039.9,031.5,32.6,0000.6,0008.32,0013.32,0007.83
2023-07-06 23:59:00,SystemResetWarning,0831.3,5.00,000.00,032.1,027.9,000.0,039.9,031.5,32.7,0000.4,0008.28,0013.24,0007.80
